Time,TemperatureF,DewpointF,PressureIn,WindDirection,WindDirectionDegrees,WindSpeedMPH,WindSpeedGustMPH,Humidity,HourlyPrecipIn,Conditions,Clouds,dailyrainin,SoftwareType,DateUTC
2013-05-18 00:03:00,71.0,65.0,30.03,North,0,0.0,0.0,82,0.00,,,0.00,,2013-05-18 04:03:00,
2013-05-18 00:12:00,71.0,65.0,30.03,North,0,0.0,0.0,82,0.00,,,0.00,,2013-05-18 04:12:00,
2013-05-18 00:23:00,71.0,65.0,30.03,North,0,0.0,0.0,81,0.00,,,0.00,,2013-05-18 04:23:00,
2013-05-18 00:33:00,70.0,65.0,30.03,North,0,0.0,0.0,83,0.00,,,0.00,,2013-05-18 04:33:00,
2013-05-18 00:42:00,70.0,65.0,30.03,North,0,0.0,0.0,83,0.00,,,0.00,,2013-05-18 04:42:00,
2013-05-18 00:52:00,69.0,64.0,30.04,North,0,0.0,0.0,83,0.00,,,0.00,,2013-05-18 04:52:00,
2013-05-18 01:02:00,69.0,64.0,30.04,North,0,0.0,0.0,83,0.00,,,0.00,,2013-05-18 05:02:00,
2013-05-18 01:13:00,69.0,64.0,30.04,North,0,0.0,0.0,83,0.00,,,0.00,,2013-05-18 05:13:00,
2013-05-18 01:22:00,68.0,64.0,30.04,North,0,0.0,0.0,86,0.00,,,0.00,,2013-05-18 05:22:00,
2013-05-18 01:32:00,68.0,64.0,30.04,North,0,0.0,0.0,87,0.00,,,0.00,,2013-05-18 05:32:00,
2013-05-18 01:42:00,68.0,64.0,30.04,North,0,0.0,0.0,87,0.00,,,0.00,,2013-05-18 05:42:00,
2013-05-18 01:52:00,67.0,63.0,30.05,North,0,0.0,0.0,88,0.00,,,0.00,,2013-05-18 05:52:00,
2013-05-18 02:02:00,67.0,63.0,30.05,North,0,0.0,0.0,88,0.00,,,0.00,,2013-05-18 06:02:00,
2013-05-18 02:11:00,67.0,63.0,30.05,North,0,0.0,0.0,88,0.00,,,0.00,,2013-05-18 06:11:00,
2013-05-18 02:22:00,67.0,63.0,30.05,North,0,0.0,0.0,87,0.00,,,0.00,,2013-05-18 06:22:00,
2013-05-18 02:32:00,67.0,63.0,30.05,North,0,0.0,0.0,87,0.00,,,0.00,,2013-05-18 06:32:00,
2013-05-18 02:42:00,67.0,63.0,30.05,North,0,0.0,0.0,87,0.00,,,0.00,,2013-05-18 06:42:00,
2013-05-18 02:52:00,66.0,62.0,30.04,North,0,0.0,0.0,87,0.00,,,0.00,,2013-05-18 06:52:00,
2013-05-18 03:01:00,65.0,61.0,30.03,North,0,0.0,0.0,88,0.00,,,0.00,,2013-05-18 07:01:00,
2013-05-18 03:12:00,65.0,61.0,30.04,North,0,0.0,0.0,88,0.00,,,0.00,,2013-05-18 07:12:00,
2013-05-18 03:21:00,65.0,61.0,30.04,North,0,0.0,0.0,88,0.00,,,0.00,,2013-05-18 07:21:00,
2013-05-18 03:32:00,64.0,61.0,30.04,North,0,0.0,0.0,89,0.00,,,0.00,,2013-05-18 07:32:00,
2013-05-18 03:42:00,64.0,61.0,30.04,North,0,0.0,0.0,90,0.00,,,0.00,,2013-05-18 07:42:00,
2013-05-18 03:52:00,64.0,61.0,30.04,North,0,0.0,0.0,90,0.00,,,0.00,,2013-05-18 07:52:00,
2013-05-18 04:02:00,63.0,60.0,30.04,North,0,0.0,0.0,90,0.00,,,0.00,,2013-05-18 08:02:00,
2013-05-18 04:11:00,63.0,60.0,30.04,North,0,0.0,0.0,90,0.00,,,0.00,,2013-05-18 08:11:00,
2013-05-18 04:21:00,63.0,60.0,30.04,North,0,0.0,0.0,90,0.00,,,0.00,,2013-05-18 08:21:00,
2013-05-18 04:32:00,63.0,60.0,30.05,North,0,0.0,0.0,91,0.00,,,0.00,,2013-05-18 08:32:00,
2013-05-18 04:42:00,63.0,60.0,30.05,North,0,0.0,0.0,91,0.00,,,0.00,,2013-05-18 08:42:00,
2013-05-18 04:52:00,62.0,59.0,30.05,North,0,0.0,0.0,91,0.00,,,0.00,,2013-05-18 08:52:00,
2013-05-18 05:02:00,62.0,60.0,30.05,North,0,0.0,0.0,92,0.00,,,0.00,,2013-05-18 09:02:00,
2013-05-18 05:11:00,62.0,60.0,30.05,North,0,0.0,0.0,92,0.00,,,0.00,,2013-05-18 09:11:00,
2013-05-18 05:22:00,62.0,60.0,30.06,North,0,0.0,0.0,92,0.00,,,0.00,,2013-05-18 09:22:00,
2013-05-18 05:33:00,61.0,59.0,30.06,North,0,0.0,0.0,93,0.00,,,0.00,,2013-05-18 09:33:00,
2013-05-18 05:43:00,61.0,59.0,30.06,North,0,0.0,0.0,93,0.00,,,0.00,,2013-05-18 09:43:00,
2013-05-18 05:53:00,61.0,59.0,30.06,North,0,0.0,0.0,93,0.00,,,0.00,,2013-05-18 09:53:00,
2013-05-18 06:03:00,61.0,59.0,30.06,North,0,0.0,0.0,94,0.00,,,0.00,,2013-05-18 10:03:00,
2013-05-18 06:12:00,61.0,59.0,30.07,North,0,0.0,0.0,94,0.00,,,0.00,,2013-05-18 10:12:00,
2013-05-18 06:23:00,61.0,59.0,30.07,North,0,0.0,0.0,94,0.00,,,0.00,,2013-05-18 10:23:00,
2013-05-18 06:33:00,61.0,59.0,30.07,North,0,0.0,0.0,94,0.00,,,0.00,,2013-05-18 10:33:00,
2013-05-18 06:42:00,61.0,59.0,30.07,North,0,0.0,0.0,94,0.00,,,0.00,,2013-05-18 10:42:00,
2013-05-18 06:52:00,61.0,59.0,30.08,North,0,0.0,0.0,94,0.00,,,0.00,,2013-05-18 10:52:00,
2013-05-18 07:03:00,61.0,59.0,30.09,North,0,0.0,0.0,94,0.00,,,0.00,,2013-05-18 11:03:00,
2013-05-18 07:12:00,61.0,59.0,30.09,North,0,0.0,0.0,94,0.00,,,0.00,,2013-05-18 11:12:00,
2013-05-18 07:22:00,61.0,59.0,30.09,North,0,0.0,0.0,94,0.00,,,0.00,,2013-05-18 11:22:00,
2013-05-18 07:33:00,62.0,60.0,30.09,North,0,0.0,0.0,93,0.00,,,0.00,,2013-05-18 11:33:00,
2013-05-18 07:42:00,62.0,60.0,30.09,North,0,0.0,0.0,93,0.00,,,0.00,,2013-05-18 11:42:00,
2013-05-18 07:52:00,62.0,60.0,30.09,North,0,0.0,0.0,93,0.00,,,0.00,,2013-05-18 11:52:00,
2013-05-18 08:02:00,63.0,61.0,30.10,North,0,0.0,0.0,93,0.00,,,0.00,,2013-05-18 12:02:00,
2013-05-18 08:12:00,63.0,61.0,30.10,North,0,0.0,0.0,93,0.00,,,0.00,,2013-05-18 12:12:00,
2013-05-18 08:23:00,64.0,61.0,30.10,North,0,0.0,0.0,91,0.00,,,0.00,,2013-05-18 12:23:00,
2013-05-18 08:33:00,65.0,62.0,30.11,North,0,0.0,0.0,90,0.00,,,0.00,,2013-05-18 12:33:00,
2013-05-18 08:42:00,65.0,62.0,30.11,North,0,0.0,0.0,90,0.00,,,0.00,,2013-05-18 12:42:00,
2013-05-18 08:52:00,65.0,62.0,30.11,North,0,0.0,0.0,90,0.00,,,0.00,,2013-05-18 12:52:00,
2013-05-18 09:01:00,66.0,63.0,30.11,North,0,0.0,0.0,89,0.00,,,0.00,,2013-05-18 13:01:00,
2013-05-18 09:11:00,66.0,63.0,30.11,North,0,0.0,0.0,89,0.00,,,0.00,,2013-05-18 13:11:00,
2013-05-18 09:21:00,66.0,63.0,30.11,North,0,0.0,0.0,89,0.00,,,0.00,,2013-05-18 13:21:00,
2013-05-18 09:33:00,69.0,64.0,30.11,North,0,0.0,0.0,85,0.00,,,0.00,,2013-05-18 13:33:00,
2013-05-18 09:43:00,69.0,64.0,30.11,North,0,0.0,0.0,85,0.00,,,0.00,,2013-05-18 13:43:00,
2013-05-18 09:53:00,69.0,64.0,30.11,North,0,0.0,0.0,85,0.00,,,0.00,,2013-05-18 13:53:00,
2013-05-18 10:03:00,71.0,66.0,30.11,North,0,0.0,0.0,83,0.00,,,0.00,,2013-05-18 14:03:00,
2013-05-18 10:12:00,72.0,66.0,30.11,North,0,0.0,0.0,81,0.00,,,0.00,,2013-05-18 14:12:00,
2013-05-18 10:22:00,72.0,66.0,30.11,North,0,0.0,0.0,81,0.00,,,0.00,,2013-05-18 14:22:00,
2013-05-18 10:33:00,74.0,67.0,30.11,North,0,0.0,0.0,78,0.00,,,0.00,,2013-05-18 14:33:00,
2013-05-18 10:42:00,74.0,67.0,30.11,North,0,0.0,0.0,78,0.00,,,0.00,,2013-05-18 14:42:00,
2013-05-18 10:54:00,74.0,67.0,30.11,North,0,0.0,0.0,78,0.00,,,0.00,,2013-05-18 14:54:00,
2013-05-18 11:03:00,75.0,68.0,30.11,North,0,0.0,0.0,78,0.00,,,0.00,,2013-05-18 15:03:00,
2013-05-18 11:13:00,76.0,68.0,30.11,North,0,0.0,3.0,77,0.00,,,0.00,,2013-05-18 15:13:00,
2013-05-18 11:23:00,76.0,68.0,30.11,North,0,0.0,3.0,77,0.00,,,0.00,,2013-05-18 15:23:00,
2013-05-18 11:33:00,76.0,68.0,30.11,North,0,0.0,5.0,76,0.00,,,0.00,,2013-05-18 15:33:00,
2013-05-18 11:43:00,76.0,68.0,30.11,North,0,0.0,5.0,76,0.00,,,0.00,,2013-05-18 15:43:00,
2013-05-18 11:53:00,77.0,68.0,30.11,North,0,0.0,3.0,74,0.00,,,0.00,,2013-05-18 15:53:00,
2013-05-18 12:03:00,77.0,68.0,30.11,North,0,0.0,4.0,74,0.00,,,0.00,,2013-05-18 16:03:00,
2013-05-18 12:13:00,77.0,68.0,30.11,North,0,0.0,4.0,74,0.00,,,0.00,,2013-05-18 16:13:00,
2013-05-18 12:22:00,77.0,67.0,30.11,North,0,0.0,4.0,72,0.00,,,0.00,,2013-05-18 16:22:00,
2013-05-18 12:33:00,77.0,68.0,30.11,North,0,0.0,3.0,73,0.00,,,0.00,,2013-05-18 16:33:00,
2013-05-18 12:42:00,77.0,68.0,30.11,North,0,0.0,3.0,73,0.00,,,0.00,,2013-05-18 16:42:00,
2013-05-18 12:52:00,77.0,70.0,30.11,North,0,0.0,0.0,78,0.00,,,0.00,,2013-05-18 16:52:00,
2013-05-18 13:02:00,76.0,69.0,30.11,North,0,0.0,0.0,79,0.00,,,0.00,,2013-05-18 17:02:00,
2013-05-18 13:12:00,76.0,69.0,30.11,North,0,0.0,0.0,79,0.00,,,0.00,,2013-05-18 17:12:00,
2013-05-18 13:22:00,72.0,68.0,30.11,North,0,0.0,0.0,88,0.25,,,0.25,,2013-05-18 17:22:00,
2013-05-18 13:32:00,71.0,69.0,30.10,North,0,0.0,0.0,92,0.28,,,0.28,,2013-05-18 17:32:00,
2013-05-18 13:42:00,71.0,69.0,30.10,North,0,0.0,0.0,92,0.28,,,0.28,,2013-05-18 17:42:00,
2013-05-18 13:52:00,70.0,68.0,30.10,North,0,0.0,0.0,94,0.28,,,0.28,,2013-05-18 17:52:00,
2013-05-18 14:01:00,70.0,68.0,30.10,North,0,0.0,0.0,93,0.29,,,0.29,,2013-05-18 18:01:00,
2013-05-18 14:12:00,70.0,68.0,30.10,North,0,0.0,0.0,93,0.29,,,0.29,,2013-05-18 18:12:00,
2013-05-18 14:21:00,70.0,68.0,30.11,North,0,0.0,0.0,95,0.04,,,0.29,,2013-05-18 18:21:00,
2013-05-18 14:32:00,70.0,68.0,30.10,North,0,0.0,0.0,94,0.01,,,0.29,,2013-05-18 18:32:00,
2013-05-18 14:42:00,70.0,68.0,30.09,North,0,0.0,0.0,95,0.01,,,0.29,,2013-05-18 18:42:00,
2013-05-18 14:52:00,70.0,68.0,30.09,North,0,0.0,0.0,95,0.01,,,0.29,,2013-05-18 18:52:00,
2013-05-18 15:02:00,71.0,69.0,30.09,North,0,0.0,0.0,95,0.00,,,0.29,,2013-05-18 19:02:00,
2013-05-18 15:12:00,71.0,69.0,30.09,North,0,0.0,0.0,95,0.00,,,0.29,,2013-05-18 19:12:00,
2013-05-18 15:22:00,71.0,69.0,30.09,North,0,0.0,0.0,94,0.00,,,0.29,,2013-05-18 19:22:00,
2013-05-18 15:32:00,72.0,70.0,30.09,North,0,0.0,1.0,93,0.00,,,0.29,,2013-05-18 19:32:00,
2013-05-18 15:42:00,72.0,69.0,30.09,North,0,0.0,0.0,91,0.00,,,0.29,,2013-05-18 19:42:00,
2013-05-18 15:52:00,72.0,69.0,30.09,North,0,0.0,0.0,91,0.00,,,0.29,,2013-05-18 19:52:00,
2013-05-18 16:02:00,73.0,70.0,30.08,North,0,0.0,0.0,89,0.00,,,0.29,,2013-05-18 20:02:00,
2013-05-18 16:11:00,73.0,70.0,30.08,North,0,0.0,0.0,89,0.00,,,0.29,,2013-05-18 20:11:00,
2013-05-18 16:22:00,74.0,71.0,30.08,North,0,0.0,0.0,89,0.00,,,0.29,,2013-05-18 20:22:00,
2013-05-18 16:32:00,74.0,71.0,30.08,North,0,0.0,0.0,89,0.00,,,0.29,,2013-05-18 20:32:00,
2013-05-18 16:42:00,74.0,71.0,30.08,North,0,0.0,0.0,89,0.00,,,0.29,,2013-05-18 20:42:00,
2013-05-18 16:52:00,74.0,71.0,30.08,North,0,0.0,0.0,89,0.00,,,0.29,,2013-05-18 20:52:00,
2013-05-18 17:01:00,74.0,71.0,30.07,North,0,0.0,2.0,89,0.00,,,0.29,,2013-05-18 21:01:00,
2013-05-18 17:12:00,74.0,71.0,30.07,North,0,0.0,2.0,89,0.00,,,0.29,,2013-05-18 21:12:00,
2013-05-18 17:22:00,75.0,71.0,30.06,North,0,0.0,2.0,88,0.00,,,0.29,,2013-05-18 21:22:00,
2013-05-18 17:33:00,75.0,70.0,30.06,North,0,0.0,0.0,84,0.00,,,0.29,,2013-05-18 21:33:00,
2013-05-18 17:43:00,75.0,70.0,30.06,North,0,0.0,0.0,84,0.00,,,0.29,,2013-05-18 21:43:00,
2013-05-18 17:53:00,75.0,70.0,30.06,North,0,0.0,0.0,85,0.00,,,0.29,,2013-05-18 21:53:00,
2013-05-18 18:03:00,74.0,70.0,30.06,North,0,0.0,0.0,88,0.00,,,0.29,,2013-05-18 22:03:00,
2013-05-18 18:12:00,74.0,70.0,30.06,North,0,0.0,0.0,88,0.00,,,0.29,,2013-05-18 22:12:00,
2013-05-18 18:23:00,74.0,70.0,30.06,North,0,0.0,0.0,88,0.00,,,0.29,,2013-05-18 22:23:00,
2013-05-18 18:33:00,74.0,70.0,30.06,North,0,0.0,0.0,87,0.00,,,0.29,,2013-05-18 22:33:00,
2013-05-18 18:42:00,74.0,71.0,30.06,North,0,0.0,0.0,89,0.00,,,0.29,,2013-05-18 22:42:00,
2013-05-18 18:53:00,74.0,71.0,30.06,North,0,0.0,0.0,89,0.00,,,0.29,,2013-05-18 22:53:00,
2013-05-18 19:01:00,73.0,70.0,30.06,North,0,0.0,0.0,91,0.00,,,0.29,,2013-05-18 23:01:00,
2013-05-18 19:12:00,73.0,70.0,30.06,North,0,0.0,0.0,91,0.00,,,0.29,,2013-05-18 23:12:00,
2013-05-18 19:22:00,73.0,70.0,30.06,North,0,0.0,0.0,91,0.00,,,0.29,,2013-05-18 23:22:00,
2013-05-18 19:32:00,72.0,69.0,30.07,North,0,0.0,0.0,91,0.00,,,0.29,,2013-05-18 23:32:00,
2013-05-18 19:41:00,72.0,69.0,30.07,North,0,0.0,0.0,91,0.00,,,0.29,,2013-05-18 23:41:00,
2013-05-18 19:53:00,72.0,70.0,30.07,North,0,0.0,0.0,92,0.00,,,0.29,,2013-05-18 23:53:00,
2013-05-18 20:01:00,71.0,69.0,30.09,North,0,0.0,2.0,92,0.00,,,0.29,,2013-05-19 00:01:00,
2013-05-18 20:12:00,71.0,69.0,30.09,North,0,0.0,2.0,92,0.00,,,0.29,,2013-05-19 00:12:00,
2013-05-18 20:21:00,70.0,68.0,30.09,North,0,0.0,0.0,93,0.00,,,0.29,,2013-05-19 00:21:00,
2013-05-18 20:32:00,70.0,68.0,30.09,North,0,0.0,0.0,93,0.01,,,0.30,,2013-05-19 00:32:00,
2013-05-18 20:41:00,70.0,68.0,30.09,North,0,0.0,0.0,93,0.01,,,0.30,,2013-05-19 00:41:00,
2013-05-18 20:52:00,69.0,67.0,30.08,North,0,0.0,0.0,94,0.02,,,0.31,,2013-05-19 00:52:00,
2013-05-18 21:01:00,69.0,68.0,30.08,North,0,0.0,0.0,95,0.02,,,0.31,,2013-05-19 01:01:00,
2013-05-18 21:11:00,69.0,68.0,30.08,North,0,0.0,0.0,95,0.02,,,0.31,,2013-05-19 01:11:00,
2013-05-18 21:21:00,69.0,68.0,30.09,North,0,0.0,0.0,95,0.02,,,0.31,,2013-05-19 01:21:00,
2013-05-18 21:32:00,68.0,67.0,30.09,North,0,0.0,0.0,95,0.01,,,0.31,,2013-05-19 01:32:00,
2013-05-18 21:42:00,68.0,67.0,30.09,North,0,0.0,0.0,95,0.01,,,0.31,,2013-05-19 01:42:00,
2013-05-18 21:52:00,68.0,67.0,30.09,North,0,0.0,0.0,96,0.00,,,0.31,,2013-05-19 01:52:00,
2013-05-18 22:01:00,68.0,67.0,30.10,North,0,0.0,0.0,96,0.00,,,0.31,,2013-05-19 02:01:00,
2013-05-18 22:11:00,68.0,67.0,30.13,North,0,0.0,0.0,96,0.00,,,0.31,,2013-05-19 02:11:00,
2013-05-18 22:22:00,68.0,67.0,30.13,North,0,0.0,0.0,96,0.00,,,0.31,,2013-05-19 02:22:00,
2013-05-18 22:32:00,66.0,63.0,30.14,NNE,17,1.0,6.0,91,0.11,,,0.42,,2013-05-19 02:32:00,
2013-05-18 22:42:00,66.0,63.0,30.14,NNE,17,1.0,6.0,91,0.11,,,0.42,,2013-05-19 02:42:00,
2013-05-18 22:52:00,64.0,62.0,30.13,North,0,0.0,5.0,93,0.23,,,0.54,,2013-05-19 02:52:00,
2013-05-18 23:01:00,63.0,62.0,30.12,North,0,0.0,0.0,96,0.35,,,0.66,,2013-05-19 03:01:00,
2013-05-18 23:11:00,63.0,62.0,30.11,North,0,0.0,0.0,96,0.40,,,0.71,,2013-05-19 03:11:00,
2013-05-18 23:22:00,63.0,62.0,30.11,North,0,0.0,0.0,96,0.40,,,0.71,,2013-05-19 03:22:00,
2013-05-18 23:33:00,63.0,62.0,30.10,North,0,0.0,0.0,96,0.32,,,0.74,,2013-05-19 03:33:00,
2013-05-18 23:42:00,63.0,62.0,30.10,North,0,0.0,0.0,96,0.32,,,0.74,,2013-05-19 03:42:00,
2013-05-18 23:53:00,63.0,62.0,30.10,North,0,0.0,0.0,97,0.23,,,0.77,,2013-05-19 03:53:00,